Temperature
19 19 19 19 19 19 19 18 18 18 19 18 18 18 18 18 18 18 18 18 18 18 18 18 18 18 18 18 18 18 18 18 18 18 18 18 18 18 17 17 17 17 17
19 19 19 19 19 18 18 18 18 18 18 18 18 18 18 18 18 18 18 18 18 18 18 18 18 18 18 18 18 18 18 18 18 18 18 18 18 17 17 17 17 17 17
19 19 19 19 19 18 18 18 18 18 18 18 18 18 18 18 18 18 18 18 18 18 18 18 18 18 18 18 18 18 18 18 18 18 18 18 18 17 17 17 18 17 17
19 19 19 19 19 18 18 18 18 18 18 18 18 18 18 18 18 18 18 18 18 18 18 18 18 18 18 18 18 18 18 18 18 17 17 17 17 17 17 17 17 17 17
19 19 19 19 19 18 18 18 18 18 18 18 18 18 18 18 18 18 18 18 18 18 18 18 18 18 18 18 18 18 18 18 18 17 17 17 17 18 17 17 17 17 17
19 19 19 19 19 19 18 18 18 18 18 18 18 18 18 18 18 18 18 18 18 18 18 18 18 18 18 18 18 18 18 18 18 17 17 18 18 18 17 17 17 17 17
19 19 19 19 19 19 18 19 19 19 19 19 19 19 18 18 18 18 18 18 18 18 18 18 18 18 18 18 18 18 18 18 18 18 17 18 18 18 18 17 17 17 17
20 19 19 19 19 19 19 19 19 19 19 19 19 19 19 19 19 18 18 18 18 18 18 18 18 18 18 18 18 18 18 18 18 18 18 18 18 18 17 17 17 17 17
20 19 19 19 19 19 19 19 19 19 19 19 19 19 19 19 19 19 19 18 18 18 18 18 18 18 18 18 19 19 18 18 18 18 18 18 18 17 17 17 17 17 17
21 20 19 19 19 19 19 19 19 19 19 19 19 19 19 18 18 19 19 18 18 19 19 19 19 19 19 19 19 19 19 18 18 18 18 18 18 18 17 17 17 17 17
21 20 20 19 19 19 19 19 19 19 19 19 18 18 18 18 18 18 19 19 19 19 19 19 19 19 19 19 19 19 19 19 18 18 18 18 18 18 17 17 17 17 17
21 21 20 20 20 20 19 19 19 19 19 18 18 18 18 18 18 18 19 19 19 19 19 19 19 19 19 19 19 19 19 19 18 18 18 18 18 18 17 17 17 17 17
21 21 20 20 20 20 20 19 19 19 19 19 19 18 19 19 19 19 19 19 19 19 19 19 18 19 19 19 19 19 19 19 19 19 18 18 18 18 18 17 17 17 17
21 21 20 20 20 20 20 20 19 19 19 19 19 19 19 19 19 19 18 19 19 19 19 19 18 18 19 19 19 19 19 19 18 18 18 18 18 18 18 17 17 17 17
21 21 20 20 20 20 20 20 20 19 19 19 19 19 19 19 19 19 19 19 19 19 19 19 18 18 19 19 19 19 19 19 19 19 18 18 18 18 18 18 17 17 17
21 20 20 20 20 20 20 20 20 19 19 19 19 19 19 19 19 19 19 19 19 19 19 19 19 18 19 19 19 19 19 19 18 18 18 18 18 18 18 18 18 17 17
21 21 20 20 20 20 20 20 20 20 20 19 19 19 19 19 19 19 19 19 19 19 19 19 19 19 19 18 18 18 19 18 18 18 18 18 18 18 18 17 17 17 17
21 21 21 20 20 20 20 20 20 20 20 19 19 19 19 19 19 19 19 19 19 18 18 18 19 18 18 18 18 18 18 18 18 18 18 18 18 18 18 17 17 17 17
21 21 21 20 20 20 20 20 20 20 20 19 19 19 19 19 19 19 19 19 18 18 18 18 18 18 18 18 18 18 18 18 18 18 18 17 17 17 17 17 17 17 17
21 21 21 20 20 20 20 20 20 19 19 19 19 19 19 19 19 19 18 18 18 18 18 18 18 18 18 18 18 18 18 18 18 18 18 17 17 17 17 17 17 17 17
22 21 21 20 20 20 20 20 20 20 19 19 19 19 19 19 19 19 18 18 18 18 18 18 18 18 18 18 18 18 18 18 18 18 18 17 17 17 17 17 17 17 17
22 21 21 20 20 20 20 20 20 20 20 19 19 19 19 19 19 19 18 18 18 18 18 18 18 18 18 18 18 18 18 18 17 17 17 17 17 17 17 16 16 16 16
22 21 21 21 20 20 20 20 19 19 19 19 19 19 19 19 19 18 19 18 18 18 18 18 18 18 18 18 18 18 18 18 17 17 17 17 17 17 16 16 16 16 16
22 22 21 21 20 20 20 20 19 19 19 19 19 19 19 18 18 18 18 18 18 18 18 18 18 18 18 18 18 18 18 18 17 17 17 17 16 16 16 16 16 16 16
23 22 21 21 20 20 20 20 19 19 19 19 19 19 19 19 18 18 18 18 18 18 18 18 18 18 18 18 18 18 18 18 18 17 16 16 16 16 16 16 16 16 16
23 22 21 21 21 20 20 20 19 19 19 19 19 19 19 18 18 18 18 18 18 18 18 18 18 18 18 18 18 18 18 17 17 17 17 16 16 16 16 16 15 15 15
Wind_Speed
9 10 14 13 13 14 14 14 14 14 14 13 13 13 14 14 15 15 16 15 16 16 16 16 16 17 17 17 18 18 18 18 18 19 19 18 18 17 16 16 16 16 17
11 12 14 14 14 14 14 14 13 13 13 13 13 13 14 15 15 15 15 15 16 16 15 15 16 16 16 16 17 17 17 17 17 18 18 17 17 15 15 15 15 15 17
12 13 14 14 14 14 14 14 13 13 14 14 14 14 15 15 15 15 15 15 15 16 15 16 15 15 16 15 15 15 15 14 15 15 15 14 15 15 16 16 17 17 16
13 14 14 14 14 14 14 14 14 14 14 14 14 15 15 15 15 14 14 15 15 15 15 15 15 15 15 14 13 12 12 12 12 11 10 12 14 15 16 16 15 15 15
14 15 14 14 14 13 14 14 15 15 15 15 15 15 15 15 15 14 15 15 15 15 15 15 14 14 13 12 11 10 9 8 8 7 10 14 14 15 15 14 14 14 14
15 16 15 14 14 14 14 15 15 15 15 15 15 16 15 15 15 16 16 15 15 15 14 13 13 12 12 10 9 8 6 5 4 8 12 15 14 14 14 14 13 13 12
16 15 15 14 14 14 14 14 14 15 15 15 15 15 15 15 15 16 15 15 14 14 13 12 11 11 9 8 6 5 3 2 4 9 11 14 14 15 13 13 12 12 12
15 15 15 14 14 14 14 14 14 14 14 14 14 14 14 14 15 15 15 14 13 13 12 11 11 10 8 6 4 3 1 1 7 10 12 13 15 15 14 13 12 12 12
14 14 13 13 13 13 14 13 13 13 13 13 13 13 13 14 14 14 14 13 12 11 10 10 10 9 7 5 3 2 2 1 4 7 11 12 15 15 14 13 12 12 11
11 12 12 12 12 12 12 12 12 12 12 12 12 11 11 12 13 13 13 12 11 10 9 9 9 7 6 4 4 4 4 3 5 8 10 13 16 15 14 13 12 11 11
10 8 9 9 10 11 13 12 12 11 11 11 10 10 9 8 10 10 11 12 10 9 8 8 7 7 6 6 7 6 5 4 7 9 10 15 16 15 14 12 12 11 10
8 8 7 6 6 8 10 10 9 9 8 6 7 8 6 5 8 10 12 11 10 9 8 8 7 7 7 6 8 8 5 4 7 9 11 16 15 14 13 12 12 11 10
7 7 9 6 5 5 6 6 5 6 6 6 6 6 5 5 7 8 7 8 8 8 6 7 8 7 6 5 4 5 4 3 7 9 13 16 15 14 13 12 11 11 10
8 8 8 7 6 5 5 4 4 4 4 4 4 4 4 2 3 4 2 3 5 5 4 4 4 3 1 1 1 1 2 3 7 9 13 15 14 13 12 11 11 11 10
7 9 8 6 5 5 4 2 4 4 4 5 4 4 4 3 3 3 1 1 1 3 3 2 2 2 2 2 2 2 2 4 7 8 10 13 13 12 12 11 10 10 10
7 8 8 7 6 4 3 2 2 3 3 4 4 5 4 4 3 2 1 1 1 1 2 3 2 1 1 2 2 2 2 3 6 9 10 11 12 12 11 10 10 9 9
8 8 7 7 7 4 3 1 2 2 4 4 5 5 4 4 3 1 1 0 1 2 2 2 2 1 1 1 1 1 1 2 4 7 10 10 10 11 11 10 9 9 9
8 7 5 6 7 5 3 1 1 2 4 3 4 4 3 3 2 1 1 1 2 1 1 1 1 1 1 2 1 1 1 1 2 5 7 9 10 9 10 10 9 8 8
8 7 4 4 6 5 4 2 1 2 2 2 3 3 3 2 1 1 1 2 1 1 1 1 2 0 1 1 1 1 1 1 1 2 3 6 8 9 9 10 9 8 7
9 7 5 4 4 4 3 3 1 2 2 1 2 3 3 1 1 1 1 1 1 2 1 2 2 1 1 0 1 1 1 1 2 2 2 3 5 7 8 8 8 6 5
9 7 6 5 4 3 2 2 2 2 2 2 2 3 2 1 1 1 1 1 0 1 1 1 0 0 0 0 1 1 1 2 2 1 1 1 2 4 5 6 7 6 5
9 8 6 5 5 4 3 2 1 2 1 1 2 3 2 1 1 0 1 0 1 0 0 1 0 1 1 0 1 0 1 1 1 1 1 2 2 3 4 5 5 6 6
9 9 7 6 6 5 4 3 2 2 0 1 2 2 1 1 1 1 2 1 0 1 1 1 1 0 1 2 1 1 1 0 0 1 1 2 2 2 2 4 4 5 6
9 9 7 7 6 5 4 3 3 2 2 2 2 2 1 1 1 1 1 1 0 1 0 1 1 2 2 2 1 0 1 1 1 1 1 2 2 3 2 2 3 4 5
9 9 8 8 6 5 4 3 2 1 1 1 2 3 2 0 0 0 1 1 1 0 0 1 1 1 1 2 2 1 0 1 1 2 1 0 1 2 1 2 3 4 5
8 8 9 8 7 6 5 4 3 2 1 1 1 2 1 1 1 1 1 2 1 0 0 0 1 1 1 1 2 1 0 0 1 1 1 1 0 1 2 2 2 4 6
Wind_Direction
75 74 77 78 77 75 75 75 76 77 77 78 80 87 93 95 94 94 94 96 99 99 98 99 100 103 103 104 104 105 107 110 112 112 112 112 113 113 113 115 113 111 113
88 84 79 77 75 75 76 76 77 77 77 79 80 87 95 97 98 98 99 100 102 102 100 99 100 102 106 107 108 108 110 115 116 118 117 115 115 114 112 111 108 114 116
91 89 81 75 76 76 76 77 77 78 80 81 82 91 96 99 101 102 102 104 104 105 104 101 102 105 106 107 110 112 115 120 125 128 126 121 117 114 110 110 112 117 118
93 86 82 80 78 78 77 77 79 80 82 82 85 93 95 98 100 102 104 106 106 107 107 107 107 108 110 111 114 118 123 128 136 139 131 123 118 117 116 116 118 121 122
91 89 86 81 80 79 79 80 82 82 82 82 86 92 94 96 100 104 105 106 107 107 107 108 108 110 112 114 118 123 128 135 138 130 116 111 111 119 122 122 122 124 125
95 92 89 85 82 82 84 84 84 84 84 84 86 90 93 97 99 101 102 104 106 106 107 110 112 112 114 116 118 123 130 141 135 113 114 112 116 126 126 127 126 127 127
98 98 96 90 89 88 87 86 86 87 87 87 89 91 93 94 97 100 100 102 104 106 110 112 114 115 118 122 125 126 130 142 131 109 111 113 121 126 127 127 130 133 132
102 102 104 98 96 94 93 92 91 91 93 94 95 97 98 98 100 102 102 104 106 107 112 115 118 117 119 122 128 140 163 113 111 109 114 119 130 132 132 131 129 132 135
105 114 116 114 108 104 103 102 100 100 99 100 102 104 106 108 108 107 108 109 110 112 115 119 122 125 129 140 167 204 223 296 117 118 116 124 135 136 137 137 136 138 138
99 109 117 120 124 123 117 115 113 111 112 112 113 116 120 121 121 121 119 118 117 119 124 129 133 140 152 177 206 230 246 265 141 115 118 134 141 141 141 141 143 144 144
89 97 110 123 135 131 127 129 132 130 132 132 135 145 152 148 137 133 122 128 130 133 139 146 151 161 177 197 216 233 250 222 125 117 123 139 145 147 148 150 153 152 153
99 98 95 101 114 121 121 140 147 136 143 153 145 159 167 146 131 127 136 143 148 152 156 170 176 182 202 203 208 223 236 177 128 124 135 147 150 152 155 159 162 162 164
107 99 95 75 66 91 115 135 129 128 134 130 121 126 121 117 122 127 145 156 167 171 175 174 190 203 207 196 188 194 201 143 121 126 141 151 155 157 160 164 165 168 172
109 98 95 91 70 54 69 98 118 122 123 121 128 116 112 93 93 104 126 160 163 159 155 162 180 205 230 112 157 175 116 102 113 119 141 151 156 161 166 166 169 173 178
110 110 105 103 88 76 55 42 93 96 105 111 106 95 93 103 90 89 79 51 87 116 137 131 89 65 43 26 15 44 59 94 114 122 138 152 158 167 172 173 176 180 184
128 120 119 116 105 94 90 65 74 99 113 108 97 83 69 78 80 83 92 53 62 88 80 88 102 92 74 55 22 51 61 99 124 130 141 154 162 165 167 170 175 178 186
127 125 129 132 124 124 117 93 94 111 110 98 96 92 77 79 84 92 108 121 63 56 91 102 90 86 120 90 56 38 66 80 112 131 143 154 162 169 173 174 177 183 187
124 126 140 144 133 133 125 97 68 77 85 97 113 110 91 80 70 65 102 77 59 62 81 132 120 79 55 74 67 17 57 86 117 136 147 153 160 167 178 181 176 182 187
126 128 134 117 128 136 141 148 145 90 85 91 107 110 104 97 62 30 63 65 17 53 4 344 88 81 93 76 140 156 155 133 128 123 130 144 152 154 164 172 176 178 184
136 138 138 129 132 139 144 151 144 128 133 128 110 104 100 88 68 34 92 82 39 45 29 30 33 358 12 336 348 50 58 98 104 92 107 112 131 146 155 159 165 169 172
145 146 148 152 141 152 158 172 167 161 169 163 148 119 118 70 70 3 27 92 116 101 71 357 344 314 300 193 63 53 57 67 89 109 106 93 103 116 128 131 139 151 158
151 151 151 155 157 173 168 175 180 149 172 156 107 114 133 132 115 230 119 182 113 124 165 278 297 335 292 221 172 114 80 26 10 98 138 140 110 92 96 112 116 123 121
161 160 169 163 159 176 167 174 188 147 152 84 109 126 145 155 145 17 64 59 89 209 168 250 260 248 281 282 224 170 163 173 98 54 77 103 107 107 102 95 101 118 125
166 164 159 155 156 161 167 188 190 184 179 167 150 120 118 59 73 103 97 94 247 282 86 257 158 274 270 289 299 218 202 172 175 136 31 47 69 79 82 86 84 102 127
167 161 155 148 149 151 169 189 203 212 173 127 107 107 113 105 16 45 113 121 165 239 326 349 15 306 317 313 319 320 338 222 202 159 179 213 56 61 75 77 80 88 100
160 155 151 144 148 155 170 179 185 221 184 116 117 137 169 165 186 175 121 105 124 186 354 17 294 315 345 328 326 329 32 176 184 151 176 181 131 57 62 52 77 78 91
Height
1505 1503 1502 1502 1501 1501 1501 1501 1501 1501 1501 1501 1501 1501 1503 1504 1505 1507 1508 1509 1511 1512 1514 1515 1517 1518 1520 1522 1524 1525 1527 1530 1532 1534 1536 1538 1540 1542 1543 1545 1547 1549 1550
1507 1505 1505 1504 1503 1503 1503 1503 1503 1503 1503 1503 1503 1503 1504 1506 1507 1509 1510 1512 1514 1515 1517 1518 1520 1522 1523 1525 1527 1528 1530 1532 1534 1536 1538 1540 1542 1544 1545 1547 1549 1550 1552
1508 1507 1507 1506 1506 1506 1506 1506 1505 1506 1506 1506 1506 1506 1507 1508 1509 1511 1513 1515 1516 1518 1520 1521 1523 1524 1526 1528 1530 1531 1533 1535 1537 1539 1541 1542 1544 1546 1547 1549 1550 1552 1554
1511 1510 1509 1508 1508 1508 1508 1508 1508 1508 1508 1508 1508 1509 1509 1510 1512 1513 1515 1517 1519 1521 1522 1524 1525 1527 1528 1530 1533 1535 1536 1538 1540 1541 1543 1545 1546 1547 1549 1550 1552 1554 1555
1512 1512 1511 1510 1510 1510 1510 1510 1511 1511 1511 1511 1511 1512 1512 1513 1514 1516 1518 1520 1522 1523 1525 1526 1528 1530 1531 1533 1535 1537 1539 1540 1542 1544 1545 1546 1547 1549 1550 1552 1553 1555 1556
1515 1514 1513 1513 1513 1513 1513 1513 1514 1514 1514 1514 1514 1515 1515 1516 1517 1519 1521 1522 1524 1526 1527 1529 1530 1532 1534 1536 1537 1539 1540 1542 1544 1546 1547 1547 1548 1550 1552 1553 1554 1556 1557
1517 1516 1516 1516 1515 1515 1516 1516 1517 1517 1517 1517 1518 1518 1519 1520 1521 1522 1523 1525 1527 1529 1530 1532 1533 1535 1536 1538 1539 1541 1542 1544 1546 1547 1548 1549 1550 1551 1552 1554 1555 1557 1558
1519 1518 1518 1518 1518 1518 1519 1519 1520 1520 1520 1521 1521 1522 1523 1524 1525 1525 1527 1528 1530 1532 1533 1534 1536 1537 1539 1540 1541 1543 1544 1545 1547 1548 1549 1550 1551 1552 1554 1555 1556 1558 1559
1522 1521 1521 1521 1521 1522 1522 1522 1523 1523 1524 1525 1525 1526 1527 1527 1528 1529 1530 1532 1533 1534 1536 1537 1538 1540 1541 1542 1544 1545 1546 1547 1548 1549 1550 1551 1552 1553 1554 1556 1557 1558 1560
1525 1525 1525 1525 1524 1525 1525 1526 1526 1527 1527 1528 1529 1530 1531 1531 1532 1533 1534 1535 1536 1537 1538 1540 1541 1542 1543 1544 1545 1547 1548 1549 1550 1550 1550 1551 1553 1554 1555 1556 1557 1559 1560
1527 1528 1528 1528 1528 1528 1528 1529 1529 1530 1530 1531 1532 1533 1533 1534 1535 1536 1537 1538 1539 1540 1541 1542 1543 1544 1545 1546 1547 1548 1549 1550 1551 1550 1551 1552 1553 1554 1555 1556 1558 1559 1560
1529 1530 1530 1531 1531 1532 1532 1531 1532 1533 1533 1534 1535 1535 1536 1538 1539 1540 1540 1541 1541 1542 1543 1544 1545 1546 1546 1547 1548 1549 1549 1550 1550 1551 1552 1553 1553 1554 1555 1556 1557 1559 1560
1530 1531 1532 1532 1533 1534 1534 1534 1535 1535 1536 1537 1538 1538 1539 1540 1541 1541 1542 1543 1543 1544 1545 1545 1546 1547 1548 1549 1550 1550 1551 1551 1551 1552 1552 1553 1554 1554 1555 1556 1557 1558 1559
1532 1532 1533 1533 1534 1534 1535 1536 1537 1538 1538 1539 1539 1540 1541 1542 1542 1542 1543 1544 1544 1545 1546 1546 1547 1548 1549 1550 1550 1551 1551 1552 1551 1552 1553 1553 1554 1554 1555 1556 1557 1558 1558
1533 1533 1534 1534 1535 1536 1536 1537 1539 1539 1539 1540 1541 1541 1542 1543 1543 1543 1544 1545 1546 1547 1547 1547 1548 1549 1549 1550 1551 1551 1551 1551 1552 1552 1553 1553 1554 1554 1555 1555 1556 1557 1558
1533 1534 1535 1535 1535 1536 1537 1538 1539 1540 1541 1542 1542 1542 1543 1543 1544 1544 1545 1546 1546 1547 1548 1548 1548 1549 1550 1550 1550 1551 1551 1551 1552 1552 1552 1553 1553 1554 1554 1555 1555 1556 1557
1534 1534 1535 1536 1536 1537 1538 1539 1540 1541 1541 1542 1542 1543 1544 1544 1544 1545 1545 1546 1547 1548 1548 1549 1549 1549 1549 1550 1550 1550 1551 1551 1552 1552 1552 1552 1553 1553 1553 1554 1555 1555 1556
1534 1535 1536 1537 1537 1537 1539 1539 1541 1542 1542 1543 1543 1544 1544 1544 1545 1545 1545 1546 1547 1547 1548 1549 1549 1549 1549 1549 1550 1550 1550 1550 1551 1551 1552 1552 1552 1552 1552 1553 1554 1554 1555
1534 1535 1536 1537 1537 1538 1539 1540 1541 1542 1542 1543 1544 1544 1544 1544 1545 1545 1545 1546 1546 1547 1548 1548 1549 1549 1549 1549 1549 1549 1550 1550 1550 1551 1551 1551 1551 1551 1552 1552 1552 1553 1554
1534 1535 1536 1537 1537 1538 1539 1540 1541 1542 1543 1543 1543 1544 1544 1544 1545 1545 1545 1545 1546 1547 1547 1548 1548 1548 1549 1549 1549 1549 1549 1549 1550 1550 1550 1551 1551 1551 1551 1551 1551 1552 1552
1533 1534 1536 1537 1537 1538 1539 1540 1541 1542 1543 1543 1543 1544 1544 1544 1544 1544 1544 1545 1545 1546 1546 1547 1547 1548 1548 1549 1549 1549 1549 1549 1549 1550 1550 1550 1551 1551 1551 1551 1550 1550 1551
1532 1533 1535 1536 1537 1538 1539 1540 1541 1542 1542 1543 1544 1544 1544 1544 1544 1545 1544 1544 1545 1545 1545 1546 1547 1547 1548 1548 1549 1548 1549 1550 1549 1549 1550 1550 1550 1550 1550 1550 1550 1550 1550
1531 1532 1534 1535 1536 1537 1539 1539 1540 1541 1542 1543 1544 1543 1543 1544 1544 1544 1544 1544 1544 1544 1545 1545 1546 1546 1547 1547 1548 1548 1548 1548 1548 1549 1549 1549 1549 1549 1549 1549 1549 1549 1549
1530 1531 1533 1534 1535 1537 1538 1539 1540 1541 1542 1543 1543 1543 1543 1543 1543 1543 1543 1544 1543 1544 1544 1544 1545 1545 1546 1546 1547 1547 1548 1547 1548 1548 1549 1549 1548 1548 1548 1548 1548 1547 1548
1529 1531 1532 1533 1535 1536 1537 1538 1539 1541 1542 1542 1543 1543 1543 1543 1543 1543 1543 1543 1543 1543 1543 1544 1544 1544 1544 1545 1545 1545 1546 1546 1546 1547 1547 1548 1547 1547 1547 1546 1546 1546 1546
1528 1530 1531 1532 1534 1535 1536 1537 1538 1540 1541 1541 1542 1542 1542 1542 1542 1542 1542 1542 1542 1542 1543 1543 1543 1543 1543 1543 1544 1544 1544 1544 1545 1545 1545 1546 1546 1546 1545 1545 1545 1545 1545